Location: Newark
(35.6799°N, 139.7636°E)
Time: 22:16:36
(UTC+00:00)

Explorer 11/Cluster Stage 4 - Pass Details

Date: 16 December 2019
Orbit: 467 x 1259 km, 28.8° (Epoch: 28 January)

Event Time Altitude Azimuth Distance (km) Brightness Sun altitude
Rises 19:30:50 0° 201° (SSW) 4,084 10.2 -26.2°
Reaches altitude 10° 19:35:17 10° 178° (S) 3,196 9.8 -25.3°
Maximum altitude 19:39:17 14° 149° (SSE) 2,894 9.9 -24.6°
Drops below altitude 10° 19:43:17 10° 119° (ESE) 3,218 10.7 -23.8°
Sets 19:47:47 0° 97° (E) 4,130 11.7 -22.9°
